Regional Weather Roundup
Issued by NWS

Home | Current Version | Previous Version | Graphics & Text | Print | Product List | Glossary On
Versions: 1 2 3 4 5 6 7 8 9 10 11 12 13 14 15 16 17 18 19 20 21 22 23 24 25 26 27 28 29 30 31 32 33 34 35 36 37 38 39 40 41 42 43 44 45 46 47 48 49 50
000
ASUS45 KBOI 242110
RWRID

IDAHO REGIONAL WEATHER ROUNDUP
NATIONAL WEATHER SERVICE BOISE ID
300 PM MDT SUN JUL 24 2016

NOTE: "FAIR" INDICATES FEW OR NO CLOUDS BELOW 12000 FEET
WITH NO SIGNIFICANT WEATHER AND/OR OBSTRUCTIONS TO VISIBILITY

IDZ012-014-242200-
SOUTHWEST IDAHO


CITY           SKY/WX    TMP DP  RH WIND       PRES   REMARKS
BOISE          SUNNY     90  36  14 NW8       30.03F
CALDWELL       NOT AVBL
MOUNTAIN HOME  SUNNY     89  36  15 N8        30.03F
$$

IDZ016-017-242200-
SOUTHCENTRAL IDAHO


CITY           SKY/WX    TMP DP  RH WIND       PRES   REMARKS
BURLEY         SUNNY     82  40  22 VRB3      30.10F
JEROME         SUNNY     83  37  19 W6        30.11F
TWIN FALLS     SUNNY     85  38  18 NW7G17    30.11F
$$

IDZ019>023-242200-
SOUTHEAST IDAHO


CITY           SKY/WX    TMP DP  RH WIND       PRES   REMARKS
IDAHO FALLS    SUNNY     83  32  16 SW8       30.15F
POCATELLO      SUNNY     86  31  13 SW7       30.14F
REXBURG        SUNNY     81  32  17 VRB6      30.16F
$$

IDZ006-010-011-018-031-032-242200-
CENTRAL IDAHO MOUNTAINS


CITY           SKY/WX    TMP DP  RH WIND       PRES   REMARKS
MCCALL         SUNNY     79  42  26 MISG      30.17S
HAILEY         SUNNY     81  37  21 SE9       30.18F
STANLEY          N/A     82  28  14 N8        30.22F
SALMON         SUNNY     82  37  20 NW7       30.04F
CHALLIS        SUNNY     86  26  11 SE5       30.11F
$$

IDZ002-004-006-007-026-242200-
NORTHERN IDAHO


CITY           SKY/WX    TMP DP  RH WIND       PRES   REMARKS
LEWISTON       SUNNY     88  42  20 VRB5      30.02F
LOWELL           N/A     91  51  25 VRB3      29.98F
COEUR D`ALENE  SUNNY     82  50  32 SW5       30.05F
MULLAN PASS    SUNNY     68  45  43 VRB6      30.25S
$$



USA.gov is the U.S. government's official web portal to all federal, state and local government web resources and services.